Voltar ao catálogo

CZ-6A DEB

AtivoSSO
NORAD 54525·DEBRIS·🇨🇳 China

Lançado Nov 11, 2022 de Taiyuan Satellite Launch Center

Loading…

Próximas Passagens (próximas 24 horas)

TLE

AtualizadoSource: Space-Track

Época: Sep 14, 2026, 10:12 UTC

1 54525U 22151KD  26257.42503896 -.00000103  00000-0 -36003-4 0  9993
2 54525  98.8682 245.1149 0069880 126.1783 234.5875 14.05513355196685

Acompanhe CZ-6A DEB em tempo real com AllMySat

Download on the App Store